Regional Weather Roundup
Issued by NWS

Home | Current Version | Previous Version | Text Only | Print | Product List | Glossary On
Versions: 1 2 3 4 5 6 7 8 9 10 11 12 13 14 15 16 17 18 19 20 21 22 23 24 25 26 27 28 29 30 31 32 33 34 35 36 37 38 39 40 41 42 43 44 45 46 47 48 49 50
224
ASUS43 KMKX 231210
RWRWI

WISCONSIN REGIONAL WEATHER ROUNDUP
NATIONAL WEATHER SERVICE MILWAUKEE/SULLIVAN WI
600 AM CST FRI FEB 23 2018

NOTE: "FAIR" INDICATES FEW OR NO CLOUDS BELOW 12,000 FEET WITH NO
SIGNIFICANT WEATHER AND/OR OBSTRUCTIONS TO VISIBILITY.

WIZ001-002-006>008-014>016-023>028-231300-
NORTHWEST WISCONSIN

CITY           SKY/WX    TMP DP  RH WIND       PRES   REMARKS
SUPERIOR ARPT  FLURRIES  25  24  96 E5        30.06F WCI  20
6HR MIN TEMP:  24; 6HR MAX TEMP:  26; 6HR PCP:  0.14;

ASHLAND        LGT SNOW  25  24  96 CALM      30.04S FOG
6HR MIN TEMP:  21; 6HR MAX TEMP:  26; 6HR PCP: TRACE;

HAYWARD        LGT SNOW  25  22  88 CALM      30.01F FOG
6HR MIN TEMP:  25; 6HR MAX TEMP:  26; 6HR PCP:  0.37;

SIREN          CLOUDY    25  24  96 CALM      30.04S FOG
6HR MIN TEMP:  25; 6HR MAX TEMP:  26;

CUMBERLAND     LGT SNOW  25  23  93 CALM      30.01F
RICE LAKE      LGT SNOW  26  25  98 CALM      30.03F
6HR MIN TEMP:  26; 6HR MAX TEMP:  26; 6HR PCP:  0.32;

CHETEK         LGT SNOW  26  25  97 CALM      30.02F
6HR MIN TEMP:  25; 6HR MAX TEMP:  26; 6HR PCP:  0.24;

LADYSMITH      LGT SNOW  27  26  96 CALM      30.03F
6HR MIN TEMP:  26; 6HR MAX TEMP:  27; 6HR PCP:  0.13;

EAU CLAIRE     LGT SNOW  28  26  92 CALM      30.02F FOG
6HR MIN TEMP:  27; 6HR MAX TEMP:  28; 6HR PCP:  0.20;

MENOMONIE      MIX PCPN  28  27  98 CALM      30.03F
6HR MIN TEMP:  27; 6HR MAX TEMP:  28; 6HR PCP:  0.16;

NEW RICHMOND   CLOUDY    26  24  91 CALM      30.04R FOG
6HR MIN TEMP:  25; 6HR MAX TEMP:  26;

OSCEOLA        CLOUDY    27  27 100 CALM      30.08R FOG
6HR MIN TEMP:  26; 6HR MAX TEMP:  27;

$$

WIZ003>005-009-010-017-018-231300-
NORTH CENTRAL WISCONSIN

CITY           SKY/WX    TMP DP  RH WIND       PRES   REMARKS
MANITOWISH WTR LGT SNOW  24  24 100 CALM      29.97F
6HR MIN TEMP:  24; 6HR MAX TEMP:  24; 6HR PCP:  0.28;

ARBOR VITAE    LGT SNOW  29  28  94 SE5       29.98F VSB 1   WCI  24
6HR MIN TEMP:  25; 6HR MAX TEMP:  29; 6HR PCP:  0.23;

WOODRUFF       LGT SNOW  29  28  94 SE5       29.98F VSB 1   WCI  24
6HR MIN TEMP:  25; 6HR MAX TEMP:  29; 6HR PCP:  0.23;

RHINELANDER    LGT SNOW  28  28 100 SE6       29.99F VSB 3/4 WCI  22
6HR MIN TEMP:  24; 6HR MAX TEMP:  29; 6HR PCP:  0.22;

EAGLE RIVER    LGT SNOW  27  27 100 SE3       29.99S VSB 3/4
6HR MIN TEMP:  24; 6HR MAX TEMP:  27;

LAND O LAKES   SNOW      27  26  96 SE5       30.00S VSB 1/2 WCI  21
6HR MIN TEMP:  24; 6HR MAX TEMP:  27;

PHILLIPS       LGT SNOW  25  25 100 CALM      29.99F
6HR MIN TEMP:  24; 6HR MAX TEMP:  25; 6HR PCP:  0.28;

TOMAHAWK       LGT SNOW  28  27  96 CALM      30.01F VSB 1
6HR MIN TEMP:  24; 6HR MAX TEMP:  29;

MEDFORD        LGT SNOW  28  27  96 CALM      30.00S
6HR MIN TEMP:  24; 6HR MAX TEMP:  29; 6HR PCP:  0.17;

MERRILL        LGT SNOW  29  29 100 CALM      30.01F
6HR MIN TEMP:  25; 6HR MAX TEMP:  30; 6HR PCP:  0.17;

$$

WIZ029-030-035-036-043>047-231300-
CENTRAL WISCONSIN

CITY           SKY/WX    TMP DP  RH WIND       PRES   REMARKS
WAUSAU         LGT SNOW  30  30 100 E3        29.99F FOG
6HR MIN TEMP:  28; 6HR MAX TEMP:  30; 6HR PCP:  0.25;

MOSINEE        LGT SNOW  30  30 100 CALM      30.01S
MARSHFIELD     CLOUDY    31  30  96 S5        30.00R WCI  26
6HR MIN TEMP:  27; 6HR MAX TEMP:  31; 6HR PCP:  0.14;

STEVENS POINT  MIX PCPN  31  31 100 CALM      30.02F
6HR MIN TEMP:  26; 6HR MAX TEMP:  31; 6HR PCP:  0.11;

WAUPACA        DRIZZLE   34  32  92 E3        30.03F
6HR MIN TEMP:  31; 6HR MAX TEMP:  34; 6HR PCP:  0.05;

WAUTOMA        CLOUDY    32  31  96 SE3       30.03F FOG
6HR MIN TEMP:  30; 6HR MAX TEMP:  32; 6HR PCP:  0.21;

WISC RAPIDS    CLOUDY    32  30  92 S3        30.03F
6HR MIN TEMP:  28; 6HR MAX TEMP:  32; 6HR PCP:  0.16;

CAMP DOUGLAS   CLOUDY    33  32  99 CALM      30.03R
6HR MIN TEMP:  30; 6HR MAX TEMP:  33; 6HR PCP:  0.13;

$$

WIZ011>013-019>022-031-037>040-048>050-231300-
NORTHEAST WISCONSIN

CITY           SKY/WX    TMP DP  RH WIND       PRES   REMARKS
ANTIGO         LGT SNOW  28  28 100 SE3       30.00F
6HR MIN TEMP:  25; 6HR MAX TEMP:  29; 6HR PCP:  0.09;

SHAWANO        CLOUDY    34  32  93 CALM      30.04F FOG
6HR MIN TEMP:  31; 6HR MAX TEMP:  34; 6HR PCP:  0.16;

OCONTO         CLOUDY    32  32  99 S3        30.06F
6HR MIN TEMP:  31; 6HR MAX TEMP:  32; 6HR PCP:  0.24;

STURGEON BAY   LGT RAIN  33  31  92 S10       30.08S FOG     WCI  25
6HR MIN TEMP:  32; 6HR MAX TEMP:  33; 6HR PCP:  0.21;

GREEN BAY      MIX PCPN  34  32  92 S7        30.06F FOG     WCI  28
6HR MIN TEMP:  30; 6HR MAX TEMP:  34; 6HR PCP:  0.10;

MANITOWOC      RAIN      34  33  96 S14       30.09S FOG     WCI  25
6HR MIN TEMP:  33; 6HR MAX TEMP:  34; 6HR PCP:  0.04;

APPLETON       LGT RAIN  34  34 100 S7        30.03F FOG     WCI  28
CLINTONVILLE   MIX PCPN  32  31  97 CALM      30.03F
6HR MIN TEMP:  29; 6HR MAX TEMP:  32; 6HR PCP:  0.14;

OSHKOSH        MIX PCPN  34  34 100 S6        30.05F FOG     WCI  29
6HR MIN TEMP:  32; 6HR MAX TEMP:  35; 6HR PCP:  0.11;

$$

WIZ032>034-041-042-053>061-231300-
SOUTHWEST WISCONSIN

CITY           SKY/WX    TMP DP  RH WIND       PRES   REMARKS
LA CROSSE      CLOUDY    34  33  96 S6        30.04F FOG     WCI  29
6HR MIN TEMP:  33; 6HR MAX TEMP:  35; 6HR PCP:  0.20;

SPARTA         CLOUDY    31  31 100 CALM      30.05S FOG
6HR MIN TEMP:  31; 6HR MAX TEMP:  32; 6HR PCP:  0.15;

VIROQUA        CLOUDY    33  33 100 SW10      30.03S WCI  25
6HR MIN TEMP:  31; 6HR MAX TEMP:  33; 6HR PCP:  0.13;

BOSCOBEL       CLOUDY    35  34  96 SW6       30.07R FOG     WCI  30
6HR MIN TEMP:  34; 6HR MAX TEMP:  35; 6HR PCP:  0.10;

PRAIRIE DU CHI CLOUDY    34  33  96 SW6       30.08R WCI  29
6HR MIN TEMP:  33; 6HR MAX TEMP:  34; 6HR PCP:  0.14;

PLATTEVILLE    CLOUDY    36  36 100 SW9       30.06F WCI  29
6HR MIN TEMP:  33; 6HR MAX TEMP:  36; 6HR PCP:  0.03;

$$

WIZ056-057-062-063-064-067-068-231300-
SOUTH CENTRAL WISCONSIN

CITY           SKY/WX    TMP DP  RH WIND       PRES   REMARKS
REEDSBURG      CLOUDY    33  33 100 S5        30.04R FOG     WCI  29
6HR MIN TEMP:  31; 6HR MAX TEMP:  33; 6HR PCP:  0.09;

BARABOO/DELLS  MIX PCPN  33  33  98 S7        30.03F WCI  27
6HR MIN TEMP:  31; 6HR MAX TEMP:  33; 6HR PCP:  0.04;

LONE ROCK      FOG       34  34 100 CALM      30.06S VSB 3/4
6HR MIN TEMP:  33; 6HR MAX TEMP:  34; 6HR PCP:  0.09;

MINERAL POINT  FOG       36 N/A N/A S8        30.05S VSB 3/4 WCI  29
MADISON        DRIZZLE   35  35 100 SW3       30.06F FOG
6HR MIN TEMP:  32; 6HR MAX TEMP:  35; 6HR PCP:  0.08;

MIDDLETON      CLOUDY    37  37 100 S6        30.05S WCI  32
6HR MIN TEMP:  33; 6HR MAX TEMP:  37; 6HR PCP:  0.05;

WATERTOWN      LGT RAIN  35  35 100 S5        30.06F WCI  31
6HR MIN TEMP:  33; 6HR MAX TEMP:  35; 6HR PCP:  0.01;

MONROE         DRZL/FOG  36  36 100 SW10      30.06S VSB 1/2 WCI  28
JANESVILLE     CLOUDY    37  37 100 S7        30.07F FOG     WCI  32
$$

WIZ051-052-058>065-066-070>072-231300-
SOUTHEAST WISCONSIN

CITY           SKY/WX    TMP DP  RH WIND       PRES   REMARKS
MILWAUKEE      LGT RAIN  37  36  96 S10       30.09S VSB 3/4 WCI  30
6HR MIN TEMP:  36; 6HR MAX TEMP:  37; 6HR PCP:  0.06;

WAUKESHA       LGT RAIN  34  34 100 S6        30.08S FOG     WCI  29
MILWAUKEE/TIMM DRIZZLE   34  32  93 S5        30.09R WCI  30
RACINE         LGT RAIN  35  35 100 S10G21    30.11R FOG     WCI  27
6HR MIN TEMP:  35; 6HR MAX TEMP:  37; 6HR PCP:  0.06;

BURLINGTON     MIX PCPN  35  34  96 S3        30.08R
6HR MIN TEMP:  34; 6HR MAX TEMP:  36; 6HR PCP:  0.01;

KENOSHA        LGT RAIN  36  35  96 SW6       30.09R FOG     WCI  31
6HR MIN TEMP:  36; 6HR MAX TEMP:  37; 6HR PCP:  0.07;

FOND DU LAC    LGT RAIN  36  33  89 S7        30.05F FOG     WCI  30
6HR MIN TEMP:  33; 6HR MAX TEMP:  36; 6HR PCP:  0.06;

SHEBOYGAN      LGT RAIN  35  35 100 S12       30.08R FOG     WCI  27
6HR MIN TEMP:  33; 6HR MAX TEMP:  35; 6HR PCP:  0.06;

WEST BEND      LGT RAIN  34  34 100 S6        30.07S WCI  29
JUNEAU         RAIN      34  34  99 S6        30.07F WCI  29
6HR MIN TEMP:  32; 6HR MAX TEMP:  34; 6HR PCP:  0.01;

$$

LSZ147-162-231300-
LAKE SUPERIOR

STATION/POSITION TIME  TEMP    WIND        PRES    WAVE
                       AIR SEA DIR/SP/G            HT/PER
                 (UTC) (F)     (DEG/KT/KT) (MB)    (FT/S)
DEVILS ISLAND    1200   27     110/ 11/ 13 1018.4F
SAXON HARBOR     1140   26      70/  2/  5 1016.9F
$$

LMZ867-665-643>646-231300-
LAKE MICHIGAN

STATION/POSITION TIME  TEMP    WIND        PRES    W



USA.gov is the U.S. government's official web portal to all federal, state and local government web resources and services.